GIA6107 WIMM-OEMA

Flight info

Callsign GIA6107
Flight time N/A
Altitude 34000
Route BULVA M300 ORISA/N0478F360 M300 LOTAV N569 TOKRA/N0437F280 Y511 ITRUX/N0472F360 Y511 ELONU
Aircraft A333/H-SDE1E2E3FGHIJ1J4J5M1P2RWXY/HB1D1

Departure

Time N/A
Airport Kualanamu International Airport (WIMM)

Arrival

Time 2026-04-24 12:52
Airport Prince Mohammad Bin Abdulaziz Airport (OEMA)
Time Latitude Longitude Altitude Speed Heading
2026-04-24 07:44 11.67402 75.15593 33824 ft 477 kts 298°
2026-04-24 07:44 11.69242 75.12831 33822 ft 477 kts 298°
2026-04-24 07:45 11.72973 75.07235 33823 ft 477 kts 298°
2026-04-24 07:45 11.76613 75.01768 33903 ft 480 kts 298°
2026-04-24 07:46 11.78497 74.98936 34072 ft 481 kts 298°
2026-04-24 07:46 11.80363 74.96133 34302 ft 480 kts 298°
2026-04-24 07:46 11.82239 74.93315 34538 ft 480 kts 298°
2026-04-24 07:46 11.84112 74.90500 34765 ft 479 kts 298°
2026-04-24 07:47 11.85984 74.87685 35002 ft 479 kts 298°
2026-04-24 07:47 11.87853 74.84874 35203 ft 478 kts 298°
2026-04-24 07:47 11.89717 74.82069 35410 ft 478 kts 298°
2026-04-24 07:47 11.91582 74.79261 35650 ft 476 kts 298°
2026-04-24 07:48 11.93438 74.76467 35791 ft 476 kts 298°
2026-04-24 07:48 11.95273 74.73702 35812 ft 476 kts 298°
2026-04-24 07:48 11.98982 74.68114 35813 ft 475 kts 298°
2026-04-24 07:49 12.02691 74.62522 35814 ft 475 kts 297°
2026-04-24 07:49 12.06394 74.56940 35813 ft 474 kts 297°
2026-04-24 07:50 12.10091 74.51358 35813 ft 474 kts 297°
2026-04-24 07:50 12.13785 74.45779 35816 ft 474 kts 297°
2026-04-24 07:51 12.17482 74.40194 35823 ft 474 kts 297°
2026-04-24 07:51 12.21178 74.34605 35823 ft 474 kts 297°
2026-04-24 07:52 12.24870 74.29019 35822 ft 474 kts 297°
2026-04-24 07:52 12.28522 74.23406 35822 ft 474 kts 297°
2026-04-24 07:53 12.32101 74.17749 35822 ft 473 kts 296°
2026-04-24 07:53 12.35668 74.12091 35823 ft 473 kts 296°
2026-04-24 07:54 12.39244 74.06432 35822 ft 473 kts 296°
2026-04-24 07:54 12.42821 74.00782 35823 ft 473 kts 296°
2026-04-24 07:55 12.46397 73.95128 35822 ft 473 kts 296°
2026-04-24 07:55 12.49946 73.89510 35823 ft 473 kts 296°
2026-04-24 07:56 12.53541 73.83819 35822 ft 473 kts 296°
2026-04-24 07:56 12.57092 73.78196 35822 ft 473 kts 296°
2026-04-24 07:57 12.60662 73.72538 35823 ft 473 kts 296°
2026-04-24 07:57 12.64232 73.66877 35822 ft 473 kts 296°
2026-04-24 07:58 12.67801 73.61213 35822 ft 473 kts 296°
2026-04-24 07:58 12.71370 73.55547 35822 ft 473 kts 296°
2026-04-24 07:59 12.74936 73.49878 35822 ft 473 kts 296°
2026-04-24 07:59 12.78501 73.44215 35822 ft 473 kts 296°
2026-04-24 08:00 12.82065 73.38546 35823 ft 473 kts 296°
2026-04-24 08:00 12.85624 73.32877 35824 ft 473 kts 296°
2026-04-24 08:01 12.89183 73.27209 35822 ft 473 kts 296°
2026-04-24 08:01 12.92736 73.21546 35822 ft 472 kts 296°
2026-04-24 08:02 12.96284 73.15886 35823 ft 472 kts 296°
2026-04-24 08:02 12.99832 73.10225 35833 ft 472 kts 296°
2026-04-24 08:03 13.03356 73.04597 35845 ft 472 kts 296°
2026-04-24 08:03 13.06900 72.98934 35848 ft 472 kts 296°
2026-04-24 08:04 13.10445 72.93265 35848 ft 472 kts 296°
2026-04-24 08:04 13.13991 72.87591 35839 ft 473 kts 296°
2026-04-24 08:05 13.17536 72.81915 35830 ft 472 kts 296°
2026-04-24 08:05 13.21083 72.76232 35833 ft 473 kts 296°
2026-04-24 08:06 13.24627 72.70552 35832 ft 473 kts 296°
2026-04-24 08:06 13.28171 72.64871 35834 ft 472 kts 296°
2026-04-24 08:07 13.31708 72.59193 35831 ft 472 kts 296°
2026-04-24 08:07 13.35242 72.53515 35832 ft 472 kts 296°
2026-04-24 08:08 13.38774 72.47838 35823 ft 471 kts 296°
2026-04-24 08:09 13.44069 72.39320 35823 ft 472 kts 296°
2026-04-24 08:09 13.47599 72.33637 35823 ft 472 kts 296°
2026-04-24 08:10 13.51106 72.27989 35822 ft 472 kts 296°
2026-04-24 08:10 13.54634 72.22302 35822 ft 472 kts 296°
2026-04-24 08:11 13.58157 72.16619 35822 ft 472 kts 295°
2026-04-24 08:11 13.61682 72.10929 35831 ft 472 kts 295°
2026-04-24 08:12 13.65203 72.05241 35833 ft 472 kts 295°
2026-04-24 08:12 13.68729 71.99552 35833 ft 472 kts 296°
2026-04-24 08:13 13.72316 71.93897 35819 ft 473 kts 296°
2026-04-24 08:13 13.75934 71.88250 35813 ft 473 kts 296°
2026-04-24 08:14 13.79548 71.82603 35814 ft 473 kts 296°
2026-04-24 08:14 13.83157 71.76949 35813 ft 473 kts 296°
2026-04-24 08:15 13.86760 71.71294 35813 ft 473 kts 296°
2026-04-24 08:15 13.90339 71.65669 35813 ft 473 kts 296°
2026-04-24 08:16 13.93940 71.60012 35814 ft 473 kts 296°
2026-04-24 08:16 13.97540 71.54351 35813 ft 472 kts 296°
2026-04-24 08:17 14.01137 71.48692 35813 ft 473 kts 296°
2026-04-24 08:17 14.04735 71.43023 35813 ft 473 kts 296°
2026-04-24 08:18 14.08331 71.37358 35812 ft 472 kts 296°
2026-04-24 08:18 14.11920 71.31698 35813 ft 472 kts 296°
2026-04-24 08:19 14.15508 71.26034 35813 ft 472 kts 296°
2026-04-24 08:19 14.19097 71.20368 35813 ft 472 kts 296°
2026-04-24 08:20 14.22660 71.14739 35813 ft 472 kts 296°
2026-04-24 08:20 14.26244 71.09070 35814 ft 472 kts 296°
2026-04-24 08:21 14.29827 71.03399 35813 ft 472 kts 296°
2026-04-24 08:21 14.33412 70.97723 35813 ft 472 kts 296°
2026-04-24 08:22 14.37009 70.92057 35813 ft 473 kts 296°
2026-04-24 08:22 14.40646 70.86407 35813 ft 473 kts 296°
2026-04-24 08:23 14.44280 70.80761 35814 ft 472 kts 296°
2026-04-24 08:23 14.47910 70.75107 35812 ft 473 kts 296°
2026-04-24 08:24 14.51547 70.69439 35813 ft 474 kts 296°
2026-04-24 08:24 14.55187 70.63770 35814 ft 474 kts 296°
2026-04-24 08:25 14.58821 70.58099 35813 ft 474 kts 296°
2026-04-24 08:25 14.62456 70.52421 35813 ft 474 kts 296°
2026-04-24 08:26 14.66085 70.46746 35814 ft 474 kts 296°
2026-04-24 08:26 14.69718 70.41068 35813 ft 474 kts 296°
2026-04-24 08:27 14.73347 70.35390 35812 ft 474 kts 296°
2026-04-24 08:27 14.76955 70.29741 35814 ft 474 kts 296°
2026-04-24 08:28 14.79989 70.24982 35814 ft 473 kts 296°
2026-04-24 08:28 14.83613 70.19302 35814 ft 473 kts 296°
2026-04-24 08:29 14.87817 70.12699 35812 ft 473 kts 296°
2026-04-24 08:29 14.91431 70.07022 35814 ft 472 kts 296°
2026-04-24 08:30 14.94457 70.02266 35814 ft 472 kts 296°
2026-04-24 08:30 14.98653 69.95668 35813 ft 472 kts 297°
2026-04-24 08:31 15.01655 69.90942 35815 ft 473 kts 297°
2026-04-24 08:31 15.05258 69.85264 35814 ft 472 kts 296°
2026-04-24 08:32 15.08863 69.79579 35814 ft 472 kts 297°
2026-04-24 08:32 15.12469 69.73901 35813 ft 472 kts 297°
2026-04-24 08:33 15.16108 69.68235 35814 ft 473 kts 297°
2026-04-24 08:33 15.19755 69.62573 35814 ft 473 kts 297°
2026-04-24 08:34 15.23405 69.56906 35814 ft 472 kts 297°
2026-04-24 08:34 15.27034 69.51256 35814 ft 471 kts 297°
2026-04-24 08:35 15.30662 69.45597 35814 ft 471 kts 297°
2026-04-24 08:35 15.34266 69.39977 35814 ft 472 kts 297°
2026-04-24 08:36 15.37888 69.34319 35813 ft 472 kts 297°
2026-04-24 08:36 15.41516 69.28651 35813 ft 472 kts 297°
2026-04-24 08:37 15.45145 69.22979 35808 ft 472 kts 297°
2026-04-24 08:37 15.48768 69.17317 35805 ft 471 kts 297°
2026-04-24 08:38 15.52384 69.11649 35804 ft 471 kts 297°
2026-04-24 08:38 15.56002 69.05976 35803 ft 472 kts 297°
2026-04-24 08:39 15.59623 69.00298 35805 ft 472 kts 298°
2026-04-24 08:39 15.63237 68.94623 35805 ft 472 kts 298°
2026-04-24 08:40 15.66856 68.88936 35804 ft 472 kts 298°
2026-04-24 08:40 15.70477 68.83245 35803 ft 473 kts 298°
2026-04-24 08:41 15.74096 68.77559 35805 ft 472 kts 298°
2026-04-24 08:41 15.77684 68.71902 35806 ft 472 kts 298°
2026-04-24 08:42 15.81290 68.66215 35806 ft 472 kts 298°
2026-04-24 08:42 15.84903 68.60521 35805 ft 472 kts 299°
2026-04-24 08:43 15.88514 68.54830 35806 ft 472 kts 299°
2026-04-24 08:43 15.92123 68.49133 35800 ft 472 kts 299°
2026-04-24 08:44 15.95725 68.43437 35802 ft 472 kts 299°
2026-04-24 08:44 15.99331 68.37734 35806 ft 472 kts 299°
2026-04-24 08:45 16.02934 68.32032 35803 ft 472 kts 300°
2026-04-24 08:45 16.06535 68.26329 35805 ft 472 kts 300°
2026-04-24 08:46 16.10134 68.20622 35808 ft 472 kts 300°
2026-04-24 08:46 16.13732 68.14916 35813 ft 472 kts 300°
2026-04-24 08:47 16.17324 68.09212 35813 ft 472 kts 300°
2026-04-24 08:47 16.20917 68.03502 35813 ft 472 kts 300°
2026-04-24 08:48 16.24485 67.97829 35814 ft 471 kts 300°
2026-04-24 08:48 16.28102 67.92085 35813 ft 471 kts 300°
2026-04-24 08:49 16.31691 67.86429 35820 ft 471 kts 300°
2026-04-24 08:49 16.35307 67.80738 35823 ft 471 kts 300°
2026-04-24 08:50 16.38916 67.75050 35822 ft 471 kts 300°
2026-04-24 08:50 16.42520 67.69359 35823 ft 470 kts 300°
2026-04-24 08:51 16.46120 67.63669 35823 ft 470 kts 300°
2026-04-24 08:51 16.49714 67.57982 35823 ft 470 kts 300°
2026-04-24 08:52 16.53302 67.52304 35822 ft 469 kts 301°
2026-04-24 08:52 16.56885 67.46627 35822 ft 468 kts 301°
2026-04-24 08:53 16.60461 67.40956 35823 ft 468 kts 301°
2026-04-24 08:53 16.64037 67.35284 35822 ft 468 kts 301°
2026-04-24 08:54 16.67611 67.29610 35823 ft 468 kts 301°
2026-04-24 08:54 16.71178 67.23939 35822 ft 467 kts 301°
2026-04-24 08:55 16.74742 67.18271 35823 ft 467 kts 301°
2026-04-24 08:55 16.78297 67.12614 35823 ft 466 kts 301°
2026-04-24 08:56 16.81851 67.06954 35829 ft 466 kts 302°
2026-04-24 08:56 16.85400 67.01292 35841 ft 466 kts 302°
2026-04-24 08:57 16.88943 66.95639 35842 ft 465 kts 302°
2026-04-24 08:57 16.92482 66.89987 35838 ft 465 kts 302°
2026-04-24 08:58 16.96019 66.84336 35838 ft 465 kts 302°
2026-04-24 08:58 16.99526 66.78725 35840 ft 464 kts 302°
2026-04-24 08:59 17.03053 66.73079 35840 ft 464 kts 302°
2026-04-24 08:59 17.06576 66.67434 35841 ft 463 kts 302°
2026-04-24 09:00 17.10092 66.61796 35840 ft 463 kts 302°
2026-04-24 09:00 17.13607 66.56156 35841 ft 463 kts 302°
2026-04-24 09:01 17.17116 66.50519 35840 ft 462 kts 302°
2026-04-24 09:01 17.20623 66.44881 35838 ft 463 kts 302°
2026-04-24 09:02 17.24133 66.39236 35840 ft 462 kts 302°
2026-04-24 09:02 17.27634 66.33600 35844 ft 462 kts 303°
2026-04-24 09:03 17.31137 66.27954 35845 ft 462 kts 303°
2026-04-24 09:03 17.34626 66.22325 35840 ft 461 kts 303°
2026-04-24 09:04 17.38115 66.16695 35838 ft 461 kts 303°
2026-04-24 09:04 17.41479 66.11260 35846 ft 461 kts 303°
2026-04-24 09:05 17.44958 66.05636 35851 ft 460 kts 303°
2026-04-24 09:05 17.48437 66.00006 35855 ft 460 kts 303°
2026-04-24 09:06 17.51910 65.94378 35853 ft 460 kts 303°
2026-04-24 09:06 17.55373 65.88757 35848 ft 459 kts 303°
2026-04-24 09:07 17.58832 65.83144 35848 ft 458 kts 303°
2026-04-24 09:07 17.64048 65.74792 35854 ft 459 kts 304°
2026-04-24 09:08 17.67623 65.69252 35855 ft 459 kts 305°
2026-04-24 09:08 17.71202 65.63715 35843 ft 459 kts 305°
2026-04-24 09:09 17.74776 65.58165 35844 ft 459 kts 305°
2026-04-24 09:09 17.78344 65.52610 35839 ft 459 kts 305°
2026-04-24 09:10 17.81913 65.47047 35839 ft 459 kts 305°
2026-04-24 09:10 17.85477 65.41484 35842 ft 459 kts 305°
2026-04-24 09:11 17.89040 65.35921 35839 ft 459 kts 305°
2026-04-24 09:11 17.92596 65.30362 35844 ft 459 kts 305°
2026-04-24 09:12 17.96153 65.24800 35848 ft 458 kts 305°
2026-04-24 09:12 17.99705 65.19240 35851 ft 458 kts 305°
2026-04-24 09:13 18.03247 65.13688 35849 ft 457 kts 305°
2026-04-24 09:13 18.06787 65.08135 35849 ft 457 kts 305°
2026-04-24 09:14 18.10328 65.02577 35848 ft 457 kts 305°
2026-04-24 09:14 18.13861 64.97030 35848 ft 457 kts 305°
2026-04-24 09:15 18.17370 64.91513 35851 ft 456 kts 305°
2026-04-24 09:15 18.20892 64.85970 35848 ft 456 kts 305°
2026-04-24 09:16 18.24407 64.80435 35848 ft 455 kts 305°
2026-04-24 09:16 18.27919 64.74900 35848 ft 455 kts 305°
2026-04-24 09:17 18.31432 64.69359 35850 ft 455 kts 305°
2026-04-24 09:17 18.34937 64.63822 35857 ft 454 kts 305°
2026-04-24 09:18 18.38437 64.58291 35851 ft 454 kts 306°
2026-04-24 09:18 18.41939 64.52757 35851 ft 454 kts 306°
2026-04-24 09:19 18.45438 64.47215 35856 ft 454 kts 305°
2026-04-24 09:19 18.48933 64.41675 35848 ft 454 kts 305°
2026-04-24 09:20 18.52398 64.36176 35851 ft 454 kts 305°
2026-04-24 09:20 18.55886 64.30640 35852 ft 453 kts 305°
2026-04-24 09:21 18.59373 64.25101 35848 ft 453 kts 305°
2026-04-24 09:21 18.62295 64.20457 35852 ft 453 kts 305°
2026-04-24 09:22 18.65755 64.14952 35852 ft 453 kts 305°
2026-04-24 09:22 18.69239 64.09400 35860 ft 454 kts 305°
2026-04-24 09:23 18.72722 64.03851 35863 ft 454 kts 305°
2026-04-24 09:23 18.76202 63.98303 35862 ft 454 kts 305°
2026-04-24 09:24 18.79676 63.92756 35862 ft 452 kts 306°
2026-04-24 09:24 18.83142 63.87218 35864 ft 452 kts 305°
2026-04-24 09:25 18.86600 63.81685 35862 ft 452 kts 306°
2026-04-24 09:25 18.90063 63.76141 35880 ft 452 kts 306°
2026-04-24 09:26 18.93521 63.70600 35878 ft 452 kts 306°
2026-04-24 09:26 18.96951 63.65100 35880 ft 451 kts 306°
2026-04-24 09:27 19.00403 63.59558 35880 ft 452 kts 305°
2026-04-24 09:27 19.03856 63.54011 35879 ft 452 kts 305°
2026-04-24 09:28 19.07311 63.48459 35881 ft 452 kts 305°
2026-04-24 09:28 19.10765 63.42901 35881 ft 452 kts 305°
2026-04-24 09:29 19.14217 63.37343 35880 ft 452 kts 305°
2026-04-24 09:29 19.17667 63.31785 35880 ft 452 kts 305°
2026-04-24 09:30 19.21698 63.25284 35881 ft 452 kts 305°
2026-04-24 09:30 19.24567 63.20652 35879 ft 452 kts 305°
2026-04-24 09:31 19.28012 63.15084 35882 ft 452 kts 305°
2026-04-24 09:31 19.31454 63.09517 35879 ft 452 kts 306°
2026-04-24 09:32 19.34893 63.03949 35880 ft 452 kts 305°
2026-04-24 09:32 19.38308 62.98416 35879 ft 452 kts 305°
2026-04-24 09:33 19.41742 62.92846 35870 ft 452 kts 306°
2026-04-24 09:33 19.45180 62.87267 35856 ft 452 kts 306°
2026-04-24 09:34 19.48613 62.81688 35859 ft 452 kts 305°
2026-04-24 09:34 19.52050 62.76099 35856 ft 452 kts 306°
2026-04-24 09:35 19.55483 62.70512 35859 ft 452 kts 306°
2026-04-24 09:35 19.58911 62.64927 35853 ft 452 kts 306°
2026-04-24 09:36 19.62339 62.59337 35850 ft 452 kts 306°
2026-04-24 09:36 19.65766 62.53742 35847 ft 452 kts 306°
2026-04-24 09:37 19.69191 62.48145 35851 ft 452 kts 306°
2026-04-24 09:37 19.72612 62.42551 35860 ft 452 kts 306°
2026-04-24 09:38 19.76031 62.36956 35859 ft 452 kts 306°
2026-04-24 09:38 19.79425 62.31393 35861 ft 452 kts 306°
2026-04-24 09:39 19.82838 62.25794 35856 ft 452 kts 306°
2026-04-24 09:39 19.86255 62.20185 35856 ft 452 kts 306°
2026-04-24 09:40 19.89669 62.14578 35857 ft 451 kts 306°
2026-04-24 09:40 19.93077 62.08978 35860 ft 452 kts 306°
2026-04-24 09:41 19.96487 62.03364 35856 ft 452 kts 306°
2026-04-24 09:41 19.99893 61.97747 35860 ft 452 kts 306°
2026-04-24 09:42 20.03298 61.92130 35857 ft 452 kts 306°
2026-04-24 09:42 20.06699 61.86512 35859 ft 452 kts 306°
2026-04-24 09:43 20.10102 61.80891 35861 ft 452 kts 306°
2026-04-24 09:43 20.13483 61.75303 35856 ft 452 kts 306°
2026-04-24 09:44 20.16878 61.69678 35857 ft 451 kts 306°
2026-04-24 09:44 20.20272 61.64054 35861 ft 451 kts 306°
2026-04-24 09:45 20.23663 61.58431 35857 ft 451 kts 305°
2026-04-24 09:45 20.27052 61.52806 35857 ft 452 kts 305°
2026-04-24 09:46 20.30442 61.47173 35857 ft 452 kts 305°
2026-04-24 09:46 20.33826 61.41542 35856 ft 451 kts 305°
2026-04-24 09:47 20.37203 61.35917 35857 ft 450 kts 305°
2026-04-24 09:47 20.40575 61.30295 35859 ft 450 kts 305°
2026-04-24 09:48 20.43930 61.24699 35866 ft 451 kts 305°
2026-04-24 09:48 20.47302 61.19066 35860 ft 451 kts 305°
2026-04-24 09:49 20.50672 61.13431 35856 ft 450 kts 305°
2026-04-24 09:49 20.54037 61.07800 35857 ft 450 kts 305°
2026-04-24 09:50 20.57403 61.02166 35859 ft 450 kts 305°
2026-04-24 09:50 20.60717 60.96504 35870 ft 451 kts 301°
2026-04-24 09:51 20.63148 60.90299 35863 ft 454 kts 292°
2026-04-24 09:51 20.65190 60.83912 35863 ft 455 kts 291°
2026-04-24 09:52 20.67159 60.77484 35859 ft 455 kts 291°
2026-04-24 09:52 20.69132 60.71055 35857 ft 455 kts 291°
2026-04-24 09:53 20.71115 60.64635 35880 ft 455 kts 291°
2026-04-24 09:53 20.73100 60.58229 35880 ft 454 kts 291°
2026-04-24 09:54 20.75085 60.51817 35879 ft 455 kts 291°
2026-04-24 09:54 20.77071 60.45395 35879 ft 455 kts 291°
2026-04-24 09:55 20.79050 60.38981 35878 ft 455 kts 291°
2026-04-24 09:55 20.81028 60.32558 35880 ft 455 kts 291°
2026-04-24 09:56 20.82988 60.26181 35880 ft 455 kts 291°
2026-04-24 09:56 20.84959 60.19762 35881 ft 454 kts 291°
2026-04-24 09:57 20.86926 60.13345 35879 ft 454 kts 291°
2026-04-24 09:57 20.88893 60.06923 35880 ft 454 kts 291°
2026-04-24 09:58 20.90854 60.00505 35880 ft 454 kts 291°
2026-04-24 09:58 20.92813 59.94091 35881 ft 453 kts 291°
2026-04-24 09:59 20.94764 59.87693 35882 ft 452 kts 290°
2026-04-24 09:59 20.96708 59.81306 35878 ft 452 kts 290°
2026-04-24 10:00 20.98652 59.74911 35870 ft 452 kts 290°
2026-04-24 10:00 21.00577 59.68557 35879 ft 452 kts 290°
2026-04-24 10:01 21.02472 59.62145 35879 ft 452 kts 290°
2026-04-24 10:01 21.04345 59.55738 35865 ft 451 kts 290°
2026-04-24 10:02 21.06219 59.49335 35879 ft 450 kts 290°
2026-04-24 10:02 21.08089 59.42941 35879 ft 450 kts 290°
2026-04-24 10:03 21.09959 59.36542 35879 ft 450 kts 290°
2026-04-24 10:03 21.11825 59.30139 35882 ft 450 kts 290°
2026-04-24 10:04 21.13687 59.23746 35880 ft 449 kts 290°
2026-04-24 10:04 21.15547 59.17358 35881 ft 449 kts 290°
2026-04-24 10:05 21.17403 59.10973 35880 ft 449 kts 290°
2026-04-24 10:05 21.19255 59.04592 35882 ft 449 kts 290°
2026-04-24 10:06 21.22022 58.95023 35879 ft 448 kts 290°
2026-04-24 10:07 21.23863 58.88650 35880 ft 447 kts 289°
2026-04-24 10:07 21.25700 58.82282 35881 ft 447 kts 289°
2026-04-24 10:08 21.27532 58.75918 35872 ft 447 kts 289°
2026-04-24 10:08 21.29364 58.69547 35849 ft 447 kts 289°
2026-04-24 10:09 21.31192 58.63177 35859 ft 447 kts 289°
2026-04-24 10:09 21.33016 58.56807 35856 ft 446 kts 289°
2026-04-24 10:10 21.34775 58.50654 35853 ft 446 kts 289°
2026-04-24 10:10 21.36285 58.45364 35846 ft 445 kts 289°
2026-04-24 10:11 21.38258 58.38444 35846 ft 445 kts 289°
2026-04-24 10:11 21.40066 58.32096 35848 ft 445 kts 289°
2026-04-24 10:12 21.41869 58.25747 35853 ft 444 kts 289°
2026-04-24 10:12 21.43671 58.19407 35835 ft 444 kts 289°
2026-04-24 10:13 21.45468 58.13066 35831 ft 444 kts 289°
2026-04-24 10:13 21.47261 58.06729 35833 ft 444 kts 289°
2026-04-24 10:14 21.49054 58.00384 35833 ft 444 kts 289°
2026-04-24 10:14 21.50844 57.94041 35833 ft 443 kts 289°
2026-04-24 10:15 21.52625 57.87712 35834 ft 442 kts 289°
2026-04-24 10:15 21.54400 57.81395 35833 ft 442 kts 289°
2026-04-24 10:16 21.56176 57.75073 35832 ft 442 kts 289°
2026-04-24 10:16 21.57948 57.68750 35831 ft 442 kts 289°
2026-04-24 10:17 21.59716 57.62429 35829 ft 442 kts 289°
2026-04-24 10:17 21.61469 57.56143 35838 ft 442 kts 289°
2026-04-24 10:18 21.63232 57.49807 35841 ft 442 kts 289°
2026-04-24 10:18 21.64989 57.43486 35830 ft 442 kts 289°
2026-04-24 10:19 21.66745 57.37160 35830 ft 442 kts 289°
2026-04-24 10:19 21.68498 57.30830 35831 ft 442 kts 289°
2026-04-24 10:20 21.70248 57.24503 35833 ft 441 kts 288°
2026-04-24 10:20 21.71996 57.18178 35833 ft 441 kts 288°
2026-04-24 10:21 21.73739 57.11855 35828 ft 441 kts 288°
2026-04-24 10:21 21.75478 57.05533 35833 ft 440 kts 288°
2026-04-24 10:22 21.77212 56.99213 35832 ft 441 kts 288°
2026-04-24 10:22 21.78944 56.92896 35834 ft 440 kts 288°
2026-04-24 10:23 21.80672 56.86579 35830 ft 440 kts 288°
2026-04-24 10:23 21.82396 56.80267 35832 ft 439 kts 288°
2026-04-24 10:24 21.84116 56.73961 35833 ft 439 kts 288°
2026-04-24 10:24 21.85833 56.67655 35831 ft 439 kts 288°
2026-04-24 10:25 21.87547 56.61353 35829 ft 439 kts 288°
2026-04-24 10:25 21.89247 56.55094 35854 ft 438 kts 288°
2026-04-24 10:26 21.90954 56.48797 35856 ft 438 kts 288°
2026-04-24 10:26 21.92656 56.42508 35859 ft 437 kts 288°
2026-04-24 10:27 21.94354 56.36222 35863 ft 437 kts 288°
2026-04-24 10:27 21.96048 56.29941 35862 ft 437 kts 287°
2026-04-24 10:28 21.97735 56.23658 35849 ft 437 kts 287°
2026-04-24 10:28 21.99421 56.17366 35854 ft 436 kts 287°
2026-04-24 10:29 22.01102 56.11086 35850 ft 436 kts 287°
2026-04-24 10:29 22.02773 56.04846 35860 ft 436 kts 287°
2026-04-24 10:30 22.04469 55.98523 35855 ft 436 kts 287°
2026-04-24 10:30 22.06139 55.92284 35853 ft 436 kts 287°
2026-04-24 10:31 22.07819 55.86001 35846 ft 436 kts 287°
2026-04-24 10:31 22.09498 55.79716 35846 ft 436 kts 287°
2026-04-24 10:32 22.11174 55.73430 35848 ft 436 kts 287°
2026-04-24 10:32 22.12846 55.67142 35849 ft 436 kts 287°
2026-04-24 10:33 22.14233 55.61917 35850 ft 436 kts 287°
2026-04-24 10:33 22.15655 55.55559 35857 ft 437 kts 279°
2026-04-24 10:34 22.16337 55.49039 35859 ft 438 kts 277°
2026-04-24 10:34 22.16872 55.42492 35857 ft 438 kts 277°
2026-04-24 10:35 22.17380 55.35954 35856 ft 437 kts 277°
2026-04-24 10:35 22.17897 55.29424 35861 ft 437 kts 277°
2026-04-24 10:36 22.18422 55.22895 35861 ft 436 kts 277°
2026-04-24 10:36 22.18946 55.16379 35870 ft 436 kts 277°
2026-04-24 10:37 22.19464 55.09873 35857 ft 435 kts 276°
2026-04-24 10:37 22.19980 55.03376 35860 ft 434 kts 276°
2026-04-24 10:38 22.20498 54.96890 35850 ft 434 kts 276°
2026-04-24 10:38 22.21011 54.90445 35849 ft 433 kts 276°
2026-04-24 10:39 22.21524 54.83973 35848 ft 433 kts 276°
2026-04-24 10:39 22.22033 54.77511 35852 ft 432 kts 276°
2026-04-24 10:40 22.22539 54.71053 35858 ft 432 kts 276°
2026-04-24 10:40 22.23042 54.64611 35856 ft 427 kts 276°
2026-04-24 10:41 22.23531 54.58278 35843 ft 421 kts 276°
2026-04-24 10:41 22.24016 54.51977 35830 ft 421 kts 276°
2026-04-24 10:42 22.24500 54.45678 35833 ft 421 kts 276°
2026-04-24 10:42 22.24981 54.39375 35844 ft 421 kts 276°
2026-04-24 10:43 22.25458 54.33078 35855 ft 420 kts 276°
2026-04-24 10:43 22.25933 54.26790 35849 ft 420 kts 276°
2026-04-24 10:44 22.26406 54.20502 35847 ft 420 kts 276°
2026-04-24 10:44 22.26878 54.14216 35844 ft 420 kts 276°
2026-04-24 10:45 22.27346 54.07937 35849 ft 420 kts 276°
2026-04-24 10:45 22.27807 54.01702 35857 ft 419 kts 276°
2026-04-24 10:46 22.28268 53.95431 35852 ft 419 kts 276°
2026-04-24 10:46 22.28727 53.89151 35847 ft 419 kts 276°
2026-04-24 10:47 22.29183 53.82880 35845 ft 419 kts 276°
2026-04-24 10:47 22.29637 53.76607 35855 ft 419 kts 276°
2026-04-24 10:48 22.30090 53.70335 35848 ft 419 kts 276°
2026-04-24 10:48 22.30539 53.64063 35847 ft 419 kts 276°
2026-04-24 10:49 22.30985 53.57781 35845 ft 419 kts 275°
2026-04-24 10:49 22.31427 53.51510 35848 ft 419 kts 275°
2026-04-24 10:50 22.31868 53.45238 35857 ft 419 kts 275°
2026-04-24 10:50 22.32307 53.38962 35845 ft 419 kts 275°
2026-04-24 10:51 22.32743 53.32689 35847 ft 419 kts 275°
2026-04-24 10:51 22.33176 53.26410 35853 ft 419 kts 275°
2026-04-24 10:52 22.33608 53.20133 35849 ft 419 kts 275°
2026-04-24 10:52 22.34036 53.13858 35845 ft 419 kts 275°
2026-04-24 10:53 22.34463 53.07584 35857 ft 418 kts 275°
2026-04-24 10:53 22.34886 53.01317 35844 ft 418 kts 275°
2026-04-24 10:54 22.35303 52.95082 35851 ft 418 kts 275°
2026-04-24 10:54 22.35722 52.88810 35854 ft 419 kts 275°
2026-04-24 10:55 22.36140 52.82537 35861 ft 418 kts 275°
2026-04-24 10:55 22.36554 52.76272 35854 ft 418 kts 275°
2026-04-24 10:56 22.36965 52.70002 35854 ft 418 kts 275°
2026-04-24 10:56 22.37373 52.63732 35857 ft 418 kts 275°
2026-04-24 10:57 22.37781 52.57465 35854 ft 418 kts 275°
2026-04-24 10:57 22.38184 52.51201 35865 ft 418 kts 274°
2026-04-24 10:58 22.38584 52.44937 35855 ft 418 kts 274°
2026-04-24 10:58 22.38982 52.38670 35857 ft 418 kts 274°
2026-04-24 10:59 22.39379 52.32403 35861 ft 418 kts 274°
2026-04-24 10:59 22.39771 52.26132 35859 ft 419 kts 274°
2026-04-24 11:00 22.40161 52.19892 35856 ft 419 kts 274°
2026-04-24 11:00 22.40552 52.13613 35852 ft 418 kts 274°
2026-04-24 11:01 22.40942 52.07346 35865 ft 418 kts 274°
2026-04-24 11:01 22.41328 52.01080 35865 ft 418 kts 274°
2026-04-24 11:02 22.41711 51.94806 35865 ft 418 kts 274°
2026-04-24 11:02 22.42090 51.88540 35869 ft 418 kts 274°
2026-04-24 11:03 22.42467 51.82275 35862 ft 418 kts 274°
2026-04-24 11:03 22.42842 51.76005 35867 ft 418 kts 274°
2026-04-24 11:04 22.43214 51.69743 35873 ft 417 kts 274°
2026-04-24 11:04 22.43584 51.63483 35862 ft 417 kts 274°
2026-04-24 11:05 22.43950 51.57222 35874 ft 418 kts 274°
2026-04-24 11:05 22.44316 51.50954 35887 ft 418 kts 274°
2026-04-24 11:06 22.44679 51.44693 35888 ft 417 kts 274°
2026-04-24 11:06 22.45037 51.38466 35887 ft 417 kts 274°
2026-04-24 11:07 22.45571 51.29083 35887 ft 417 kts 274°
2026-04-24 11:07 22.45924 51.22830 35888 ft 417 kts 274°
2026-04-24 11:08 22.46275 51.16579 35887 ft 417 kts 273°
2026-04-24 11:08 22.46622 51.10325 35888 ft 416 kts 273°
2026-04-24 11:09 22.46969 51.04073 35887 ft 417 kts 273°
2026-04-24 11:09 22.47314 50.97824 35888 ft 416 kts 273°
2026-04-24 11:10 22.47654 50.91579 35887 ft 416 kts 273°
2026-04-24 11:10 22.47992 50.85342 35886 ft 416 kts 273°
2026-04-24 11:11 22.48327 50.79101 35886 ft 416 kts 273°
2026-04-24 11:11 22.48659 50.72900 35889 ft 416 kts 273°
2026-04-24 11:12 22.48991 50.66665 35888 ft 416 kts 273°
2026-04-24 11:12 22.49319 50.60425 35888 ft 416 kts 273°
2026-04-24 11:13 22.49646 50.54180 35886 ft 416 kts 273°
2026-04-24 11:13 22.49970 50.47939 35888 ft 416 kts 273°
2026-04-24 11:14 22.50290 50.41698 35887 ft 416 kts 273°
2026-04-24 11:14 22.50609 50.35448 35887 ft 416 kts 273°
2026-04-24 11:15 22.50927 50.29204 35887 ft 416 kts 273°
2026-04-24 11:15 22.51242 50.22958 35887 ft 416 kts 273°
2026-04-24 11:16 22.51553 50.16723 35897 ft 415 kts 273°
2026-04-24 11:16 22.51861 50.10493 35897 ft 415 kts 272°
2026-04-24 11:17 22.52165 50.04259 35897 ft 415 kts 272°
2026-04-24 11:17 22.52469 49.98069 35897 ft 415 kts 272°
2026-04-24 11:18 22.52771 49.91842 35897 ft 415 kts 272°
2026-04-24 11:18 22.53070 49.85611 35900 ft 415 kts 272°
2026-04-24 11:19 22.53366 49.79378 35907 ft 415 kts 272°
2026-04-24 11:19 22.53790 49.73155 35906 ft 415 kts 275°
2026-04-24 11:20 22.54398 49.66949 35906 ft 415 kts 275°
2026-04-24 11:20 22.55025 49.60742 35907 ft 415 kts 275°
2026-04-24 11:21 22.55625 49.54574 35906 ft 415 kts 275°
2026-04-24 11:21 22.56213 49.48362 35906 ft 415 kts 275°
2026-04-24 11:22 22.56796 49.42149 35912 ft 415 kts 275°
2026-04-24 11:22 22.57376 49.35942 35916 ft 414 kts 275°
2026-04-24 11:23 22.57954 49.29744 35915 ft 414 kts 275°
2026-04-24 11:23 22.58530 49.23550 35925 ft 414 kts 275°
2026-04-24 11:24 22.59103 49.17348 35925 ft 414 kts 275°
2026-04-24 11:24 22.59673 49.11144 35925 ft 414 kts 275°
2026-04-24 11:25 22.60145 49.05988 35925 ft 414 kts 275°
2026-04-24 11:25 22.60806 48.98769 35925 ft 414 kts 275°
2026-04-24 11:26 22.61279 48.93575 35925 ft 414 kts 275°
2026-04-24 11:26 22.61840 48.87373 35925 ft 414 kts 275°
2026-04-24 11:27 22.62396 48.81205 35924 ft 414 kts 274°
2026-04-24 11:27 22.62953 48.74996 35925 ft 414 kts 274°
2026-04-24 11:28 22.63509 48.68785 35925 ft 415 kts 274°
2026-04-24 11:28 22.64062 48.62571 35925 ft 415 kts 274°
2026-04-24 11:29 22.64611 48.56362 35925 ft 414 kts 274°
2026-04-24 11:29 22.65159 48.50151 35924 ft 415 kts 274°
2026-04-24 11:30 22.65706 48.43930 35924 ft 415 kts 274°
2026-04-24 11:30 22.66250 48.37717 35925 ft 414 kts 274°
2026-04-24 11:31 22.66791 48.31505 35925 ft 414 kts 274°
2026-04-24 11:31 22.67326 48.25333 35925 ft 414 kts 274°
2026-04-24 11:32 22.67861 48.19126 35925 ft 413 kts 274°
2026-04-24 11:32 22.68393 48.12922 35924 ft 414 kts 274°
2026-04-24 11:33 22.68924 48.06715 35925 ft 414 kts 274°
2026-04-24 11:33 22.69450 48.00512 35925 ft 413 kts 274°
2026-04-24 11:34 22.69969 47.94351 35925 ft 414 kts 274°
2026-04-24 11:34 22.70490 47.88147 35925 ft 414 kts 274°
2026-04-24 11:35 22.71008 47.81945 35925 ft 414 kts 274°
2026-04-24 11:35 22.71522 47.75740 35924 ft 413 kts 274°
2026-04-24 11:36 22.72033 47.69549 35924 ft 413 kts 274°
2026-04-24 11:36 22.72542 47.63363 35925 ft 413 kts 274°
2026-04-24 11:37 22.73050 47.57163 35925 ft 413 kts 274°
2026-04-24 11:37 22.73554 47.50965 35938 ft 413 kts 274°
2026-04-24 11:38 22.74056 47.44772 35932 ft 413 kts 274°
2026-04-24 11:38 22.74555 47.38584 35932 ft 413 kts 274°
2026-04-24 11:39 22.75053 47.32389 35937 ft 412 kts 274°
2026-04-24 11:39 22.75548 47.26202 35933 ft 412 kts 274°
2026-04-24 11:40 22.76040 47.20018 35934 ft 412 kts 273°
2026-04-24 11:40 22.76551 47.13839 35935 ft 412 kts 276°
2026-04-24 11:41 22.77712 47.07791 35935 ft 413 kts 281°
2026-04-24 11:41 22.79094 47.01742 35937 ft 414 kts 282°
2026-04-24 11:42 22.80500 46.95688 35937 ft 414 kts 282°
2026-04-24 11:42 22.81906 46.89646 35938 ft 414 kts 282°
2026-04-24 11:43 22.83313 46.83596 35934 ft 414 kts 282°
2026-04-24 11:43 22.84718 46.77546 35932 ft 414 kts 281°
2026-04-24 11:44 22.86123 46.71487 35932 ft 414 kts 281°
2026-04-24 11:44 22.87525 46.65424 35924 ft 414 kts 281°
2026-04-24 11:45 22.88923 46.59375 35925 ft 413 kts 281°
2026-04-24 11:45 22.90317 46.53329 35924 ft 413 kts 281°
2026-04-24 11:46 22.91709 46.47278 35925 ft 413 kts 281°
2026-04-24 11:46 22.93091 46.41263 35925 ft 413 kts 281°
2026-04-24 11:47 22.94478 46.35212 35924 ft 413 kts 281°
2026-04-24 11:47 22.95860 46.29172 35924 ft 412 kts 281°
2026-04-24 11:48 22.97237 46.23140 35925 ft 412 kts 281°
2026-04-24 11:48 22.98615 46.17102 35924 ft 412 kts 281°
2026-04-24 11:49 22.99991 46.11057 35927 ft 412 kts 281°
2026-04-24 11:49 23.01364 46.05014 35925 ft 412 kts 281°
2026-04-24 11:50 23.02734 45.98974 35925 ft 412 kts 281°
2026-04-24 11:50 23.04102 45.92928 35924 ft 412 kts 281°
2026-04-24 11:51 23.05466 45.86887 35925 ft 412 kts 281°
2026-04-24 11:51 23.06827 45.80847 35925 ft 412 kts 281°
2026-04-24 11:52 23.08188 45.74801 35925 ft 412 kts 281°
2026-04-24 11:52 23.09545 45.68760 35932 ft 412 kts 281°
2026-04-24 11:53 23.10899 45.62720 35933 ft 412 kts 281°
2026-04-24 11:53 23.12252 45.56675 35937 ft 412 kts 281°
2026-04-24 11:54 23.13594 45.50666 35932 ft 412 kts 281°
2026-04-24 11:54 23.14942 45.44619 35935 ft 412 kts 281°
2026-04-24 11:55 23.16287 45.38572 35932 ft 412 kts 280°
2026-04-24 11:55 23.17630 45.32526 35932 ft 411 kts 280°
2026-04-24 11:56 23.18969 45.26481 35932 ft 411 kts 280°
2026-04-24 11:56 23.20306 45.20435 35938 ft 411 kts 280°
2026-04-24 11:57 23.21639 45.14396 35932 ft 411 kts 280°
2026-04-24 11:57 23.22972 45.08350 35935 ft 411 kts 280°
2026-04-24 11:58 23.24302 45.02303 35934 ft 411 kts 280°
2026-04-24 11:58 23.25630 44.96252 35932 ft 412 kts 280°
2026-04-24 11:59 23.26956 44.90198 35933 ft 411 kts 280°
2026-04-24 11:59 23.28276 44.84158 35934 ft 411 kts 280°
2026-04-24 12:00 23.29599 44.78095 35933 ft 411 kts 280°
2026-04-24 12:00 23.30909 44.72078 35934 ft 411 kts 280°
2026-04-24 12:01 23.32234 44.65983 35934 ft 411 kts 280°
2026-04-24 12:01 23.33547 44.59932 35934 ft 411 kts 279°
2026-04-24 12:02 23.34847 44.53925 35934 ft 411 kts 279°
2026-04-24 12:02 23.36154 44.47876 35935 ft 411 kts 279°
2026-04-24 12:03 23.37459 44.41826 35934 ft 411 kts 279°
2026-04-24 12:03 23.38763 44.35767 35934 ft 411 kts 279°
2026-04-24 12:04 23.40065 44.29706 35934 ft 411 kts 279°
2026-04-24 12:04 23.41365 44.23645 35933 ft 411 kts 279°
2026-04-24 12:05 23.42662 44.17586 35934 ft 411 kts 279°
2026-04-24 12:05 23.43955 44.11528 35934 ft 411 kts 279°
2026-04-24 12:06 23.45245 44.05471 35933 ft 411 kts 279°
2026-04-24 12:06 23.46533 43.99411 35935 ft 411 kts 279°
2026-04-24 12:07 23.47819 43.93352 35933 ft 411 kts 279°
2026-04-24 12:07 23.49103 43.87293 35934 ft 410 kts 279°
2026-04-24 12:08 23.50384 43.81231 35934 ft 410 kts 279°
2026-04-24 12:08 23.51662 43.75176 35934 ft 410 kts 278°
2026-04-24 12:09 23.52935 43.69132 35916 ft 408 kts 278°
2026-04-24 12:09 23.54200 43.63100 35906 ft 409 kts 278°
2026-04-24 12:10 23.55467 43.57060 35912 ft 408 kts 278°
2026-04-24 12:11 23.57359 43.48014 35916 ft 407 kts 278°
2026-04-24 12:11 23.58614 43.41994 35916 ft 407 kts 278°
2026-04-24 12:12 23.59868 43.35978 35916 ft 407 kts 278°
2026-04-24 12:12 23.61119 43.29958 35915 ft 407 kts 278°
2026-04-24 12:13 23.62365 43.23946 35916 ft 407 kts 278°
2026-04-24 12:13 23.63610 43.17926 35915 ft 407 kts 278°
2026-04-24 12:14 23.64844 43.11949 35915 ft 406 kts 278°
2026-04-24 12:14 23.65881 43.06919 35915 ft 406 kts 278°
2026-04-24 12:15 23.67116 43.00911 35916 ft 406 kts 278°
2026-04-24 12:15 23.68350 42.94899 35916 ft 406 kts 278°
2026-04-24 12:16 23.69583 42.88885 35915 ft 406 kts 277°
2026-04-24 12:16 23.70812 42.82876 35916 ft 405 kts 277°
2026-04-24 12:17 23.72034 42.76881 35915 ft 405 kts 277°
2026-04-24 12:17 23.73246 42.70928 35916 ft 405 kts 277°
2026-04-24 12:18 23.74463 42.64931 35915 ft 404 kts 277°
2026-04-24 12:18 23.75679 42.58936 35915 ft 404 kts 277°
2026-04-24 12:19 23.76891 42.52946 35915 ft 404 kts 277°
2026-04-24 12:19 23.78099 42.46965 35916 ft 404 kts 277°
2026-04-24 12:20 23.79306 42.40970 35916 ft 404 kts 277°
2026-04-24 12:20 23.80510 42.34985 35915 ft 404 kts 277°
2026-04-24 12:21 23.81711 42.29001 35916 ft 403 kts 277°
2026-04-24 12:21 23.82906 42.23026 35915 ft 403 kts 277°
2026-04-24 12:22 23.84101 42.17046 35916 ft 404 kts 277°
2026-04-24 12:22 23.85295 42.11054 35915 ft 404 kts 276°
2026-04-24 12:23 23.86486 42.05069 35916 ft 403 kts 276°
2026-04-24 12:23 23.87673 41.99089 35915 ft 403 kts 276°
2026-04-24 12:24 23.88857 41.93109 35916 ft 403 kts 276°
2026-04-24 12:24 23.90040 41.87129 35915 ft 403 kts 276°
2026-04-24 12:25 23.91213 41.81182 35915 ft 403 kts 276°
2026-04-24 12:25 23.92390 41.75201 35913 ft 403 kts 276°
2026-04-24 12:25 23.92976 41.72221 35652 ft 399 kts 276°
2026-04-24 12:26 23.93559 41.69254 35056 ft 399 kts 276°
2026-04-24 12:26 23.94140 41.66288 34461 ft 400 kts 276°
2026-04-24 12:26 23.94722 41.63316 33861 ft 400 kts 276°
2026-04-24 12:26 23.95302 41.60356 33246 ft 395 kts 276°
2026-04-24 12:27 23.95873 41.57456 32659 ft 386 kts 276°
2026-04-24 12:27 23.96430 41.54610 32067 ft 381 kts 276°
2026-04-24 12:27 23.96980 41.51766 31561 ft 384 kts 276°
2026-04-24 12:27 23.97535 41.48899 31153 ft 386 kts 277°
2026-04-24 12:28 23.98093 41.46031 30718 ft 385 kts 277°
2026-04-24 12:28 23.98649 41.43179 30276 ft 382 kts 277°
2026-04-24 12:28 23.99208 41.40305 29824 ft 381 kts 278°
2026-04-24 12:28 23.99757 41.37478 29390 ft 379 kts 278°
2026-04-24 12:29 24.00303 41.34665 28943 ft 377 kts 278°
2026-04-24 12:29 24.00846 41.31865 28487 ft 375 kts 278°
2026-04-24 12:29 24.01375 41.29131 28060 ft 369 kts 278°
2026-04-24 12:29 24.01904 41.26392 27629 ft 369 kts 278°
2026-04-24 12:30 24.02434 41.23642 27195 ft 371 kts 278°
2026-04-24 12:30 24.02966 41.20881 26750 ft 370 kts 278°
2026-04-24 12:30 24.03497 41.18127 26303 ft 368 kts 278°
2026-04-24 12:30 24.04023 41.15397 25870 ft 366 kts 278°
2026-04-24 12:31 24.04546 41.12676 25432 ft 364 kts 278°
2026-04-24 12:31 24.05063 41.09982 24990 ft 362 kts 278°
2026-04-24 12:31 24.05579 41.07299 24564 ft 359 kts 278°
2026-04-24 12:31 24.06091 41.04623 24139 ft 358 kts 278°
2026-04-24 12:32 24.06600 41.01968 23711 ft 356 kts 278°
2026-04-24 12:32 24.07106 40.99325 23271 ft 354 kts 277°
2026-04-24 12:32 24.07608 40.96694 22852 ft 353 kts 277°
2026-04-24 12:32 24.08109 40.94071 22427 ft 351 kts 277°
2026-04-24 12:33 24.08606 40.91467 22006 ft 349 kts 277°
2026-04-24 12:33 24.09101 40.88871 21583 ft 347 kts 277°
2026-04-24 12:33 24.09592 40.86289 21154 ft 346 kts 277°
2026-04-24 12:33 24.10081 40.83721 20741 ft 344 kts 277°
2026-04-24 12:34 24.10568 40.81158 20320 ft 343 kts 277°
2026-04-24 12:34 24.11051 40.78611 19897 ft 341 kts 276°
2026-04-24 12:34 24.11525 40.76104 19477 ft 341 kts 276°
2026-04-24 12:34 24.12006 40.73567 19038 ft 340 kts 276°
2026-04-24 12:35 24.12483 40.71033 18625 ft 339 kts 276°
2026-04-24 12:35 24.12960 40.68513 18213 ft 338 kts 276°
2026-04-24 12:35 24.13433 40.66009 17789 ft 335 kts 276°
2026-04-24 12:35 24.13902 40.63502 17360 ft 336 kts 276°
2026-04-24 12:36 24.14376 40.61008 16935 ft 333 kts 276°
2026-04-24 12:36 24.14845 40.58533 16590 ft 329 kts 276°
2026-04-24 12:36 24.15302 40.56095 16309 ft 324 kts 276°
2026-04-24 12:36 24.15757 40.53697 16015 ft 322 kts 276°
2026-04-24 12:37 24.16155 40.51225 15862 ft 336 kts 272°
2026-04-24 12:37 24.16397 40.48668 15494 ft 339 kts 271°
2026-04-24 12:37 24.16592 40.46088 15251 ft 340 kts 271°
2026-04-24 12:37 24.16778 40.43518 14959 ft 339 kts 270°
2026-04-24 12:38 24.16960 40.40948 14654 ft 338 kts 271°
2026-04-24 12:38 24.17140 40.38383 14337 ft 337 kts 270°
2026-04-24 12:38 24.17319 40.35827 14031 ft 336 kts 270°
2026-04-24 12:39 24.17871 40.28183 13109 ft 335 kts 271°
2026-04-24 12:39 24.18052 40.25673 12808 ft 334 kts 271°
2026-04-24 12:39 24.18234 40.23135 12499 ft 334 kts 272°
2026-04-24 12:40 24.18413 40.20599 12194 ft 333 kts 272°
2026-04-24 12:40 24.18594 40.18077 11903 ft 332 kts 271°
2026-04-24 12:40 24.18775 40.15561 11594 ft 332 kts 272°
2026-04-24 12:40 24.18956 40.13046 11304 ft 330 kts 272°
2026-04-24 12:41 24.19133 40.10554 11065 ft 324 kts 272°
2026-04-24 12:41 24.19308 40.08145 10872 ft 309 kts 271°
2026-04-24 12:41 24.19470 40.05857 10608 ft 294 kts 271°
2026-04-24 12:41 24.19625 40.03677 10343 ft 280 kts 271°
2026-04-24 12:42 24.19774 40.01599 10098 ft 267 kts 271°
2026-04-24 12:42 24.19914 39.99619 9862 ft 255 kts 271°
2026-04-24 12:42 24.20047 39.97716 9642 ft 247 kts 271°
2026-04-24 12:42 24.20175 39.95860 9429 ft 243 kts 271°
2026-04-24 12:43 24.20301 39.94028 9216 ft 240 kts 271°
2026-04-24 12:43 24.20426 39.92201 9009 ft 240 kts 271°
2026-04-24 12:43 24.20550 39.90379 8791 ft 239 kts 270°
2026-04-24 12:43 24.20480 39.88577 8537 ft 236 kts 259°
2026-04-24 12:44 24.20205 39.86814 8345 ft 234 kts 256°
2026-04-24 12:44 24.19890 39.85066 8139 ft 233 kts 256°
2026-04-24 12:44 24.19574 39.83326 7940 ft 233 kts 256°
2026-04-24 12:44 24.19295 39.81578 7742 ft 234 kts 263°
2026-04-24 12:45 24.19642 39.79858 7533 ft 239 kts 300°
2026-04-24 12:45 24.20849 39.78593 7329 ft 245 kts 324°
2026-04-24 12:45 24.22406 39.77807 7090 ft 249 kts 341°
2026-04-24 12:45 24.24083 39.77406 6885 ft 249 kts 347°
2026-04-24 12:46 24.25805 39.77055 6681 ft 248 kts 347°
2026-04-24 12:46 24.27499 39.76710 6444 ft 247 kts 347°
2026-04-24 12:46 24.29168 39.76375 6286 ft 247 kts 347°
2026-04-24 12:46 24.30855 39.76031 5906 ft 247 kts 347°
2026-04-24 12:47 24.32541 39.75681 5557 ft 245 kts 346°
2026-04-24 12:47 24.34234 39.75321 5226 ft 244 kts 346°
2026-04-24 12:47 24.35871 39.74969 4918 ft 241 kts 346°
2026-04-24 12:47 24.37508 39.74616 4793 ft 230 kts 346°
2026-04-24 12:48 24.39029 39.74288 4777 ft 215 kts 346°
2026-04-24 12:48 24.40426 39.73991 4746 ft 200 kts 346°
2026-04-24 12:48 24.41748 39.73710 4538 ft 188 kts 346°
2026-04-24 12:48 24.43011 39.73441 4256 ft 181 kts 347°
2026-04-24 12:49 24.44223 39.73184 4008 ft 174 kts 347°
2026-04-24 12:49 24.45383 39.72939 3771 ft 165 kts 347°
2026-04-24 12:49 24.46477 39.72707 3558 ft 155 kts 347°
2026-04-24 12:49 24.47512 39.72487 3364 ft 150 kts 347°
2026-04-24 12:50 24.48542 39.72263 3156 ft 151 kts 347°
2026-04-24 12:50 24.49569 39.72038 2943 ft 151 kts 347°
2026-04-24 12:50 24.50603 39.71825 2753 ft 151 kts 347°
2026-04-24 12:50 24.51637 39.71608 2541 ft 151 kts 347°
2026-04-24 12:51 24.52661 39.71389 2355 ft 149 kts 347°
2026-04-24 12:51 24.53673 39.71176 2154 ft 147 kts 348°
2026-04-24 12:51 24.54640 39.70970 2075 ft 124 kts 349°
2026-04-24 12:51 24.55214 39.70849 2072 ft 50 kts 349°
2026-04-24 12:52 24.55540 39.70780 2071 ft 46 kts 349°
2026-04-24 12:52 24.55836 39.70718 2073 ft 37 kts 349°
2026-04-24 12:52 24.56072 39.70693 2073 ft 33 kts
2026-04-24 12:52 24.56199 39.70722 2073 ft 9 kts 15°
2026-04-24 12:53 24.56260 39.70751 2071 ft 10 kts 41°
2026-04-24 12:53 24.56263 39.70806 2075 ft 5 kts 137°
2026-04-24 12:53 24.56224 39.70825 2074 ft 7 kts 162°
2026-04-24 12:53 24.56171 39.70838 2074 ft 9 kts 169°
2026-04-24 12:54 24.56105 39.70852 2073 ft 11 kts 169°
2026-04-24 12:54 24.56036 39.70867 2070 ft 9 kts 162°
2026-04-24 12:54 24.55997 39.70914 2074 ft 8 kts 97°
2026-04-24 12:54 24.56004 39.70979 2074 ft 9 kts 80°
2026-04-24 12:55 24.56004 39.71051 2074 ft 9 kts 116°
2026-04-24 12:55 24.55953 39.71080 2072 ft 9 kts 167°
2026-04-24 12:55 24.55890 39.71095 2074 ft 10 kts 168°
2026-04-24 12:55 24.55827 39.71108 2071 ft 7 kts 170°
2026-04-24 12:56 24.55798 39.71122 2073 ft 2 kts 125°
2026-04-24 12:56 24.55794 39.71138 2072 ft 3 kts 105°
2026-04-24 12:56 24.55794 39.71165 2071 ft 3 kts 74°
2026-04-24 12:56 24.55796 39.71183 2071 ft 3 kts 83°
2026-04-24 12:57 24.55799 39.71210 2074 ft 4 kts 79°
2026-04-24 12:57 24.55801 39.71220 2074 ft 0 kts 79°